Starlink 31838

operational
NORAD ID: 60130 Int'l Des: 2024-118 Owner: SPXS Country: US Constellation: starlink
LEOCIRCULAR

关于 Starlink 31838

正在加载描述...

实时位置

正在加载3D地球...

即将过境

高度历史

Altitude vs Time

uPlot chart will show altitude changes over time

两行轨道根数

1 60130U 24118T 25258.89934267 .00002741 00000-0 10461-3 0 9995
2 60130 53.1594 118.7102 0001190 80.8020 279.3115 15.30204836 68934
Epoch: Sep 15, 2025 • Age: 22 hours

当前状态

高度 479.2 km
速度 7.63 km/s
星下点 -14.39°S, 175.69°E
发射日期 Jun 24, 2024
运行时间 1.2 years
类型 internet

技术详情

分类 Payload
质量 730.00 kg
干质量 700.00 kg
总质量 730.00 kg
长度 0.30 m
直径 4.10 m
跨度 29.00 m
形状 Box + pan
制造商 SPXS
平台类型 Starlink V2M
阶段状态 In Orbit
所有者/国家 SPXS/US

大型星座

Loading constellations...